Weather reports worldwide

Advertisment
Capri, Italy (16294): temperature & dewpoint: 17.04.2018 01:00:00 - 23.04.2018 01:00:00 (CEST)Capri, Italy (16294): wind speed: 17.04.2018 01:00:00 - 23.04.2018 01:00:00 (CEST)Capri, Italy (16294): wind direction: 17.04.2018 01:00:00 - 23.04.2018 01:00:00 (CEST)Capri, Italy (16294): reduced air pressure: 17.04.2018 01:00:00 - 23.04.2018 01:00:00 (CEST)Capri, Italy (16294): visibility: 17.04.2018 01:00:00 - 23.04.2018 01:00:00 (CEST)
Date & Time tt [°C] td [°C] ff [km/h] ff [kn] dd ppp [hPa] vv [km]
23.04.2018 01:00:00 16,0 15,0 0 0 N - 7
23.04.2018 00:00:00 17,0 15,0 0 0 N - 7
22.04.2018 23:00:00 17,4 15,9 4 2 W 1020,0 8
22.04.2018 22:00:00 18,0 16,0 4 2 SW - 8
22.04.2018 21:00:00 18,0 17,0 5 3 WSW - 8
22.04.2018 20:00:00 18,0 16,3 0 0 N 1019,0 8
22.04.2018 19:00:00 19,0 17,0 8 4 WSW - 8
22.04.2018 18:00:00 20,0 17,0 8 4 WSW - 8
22.04.2018 17:00:00 19,8 17,4 8 4 WSW 1018,4 8
22.04.2018 16:00:00 20,0 18,0 9 5 WSW - 8
22.04.2018 15:00:00 19,0 17,0 9 5 WSW - 8
22.04.2018 14:00:00 20,8 16,8 8 4 W 1019,4 8
22.04.2018 13:00:00 19,0 17,0 8 4 W - 8
22.04.2018 12:00:00 19,0 17,0 8 4 NNW - 8
22.04.2018 11:00:00 19,0 16,4 4 2 NE 1019,9 8
22.04.2018 10:00:00 17,0 15,0 4 2 NE - 8
22.04.2018 09:00:00 17,0 16,0 2 1 NNE - 10
22.04.2018 08:00:00 16,8 15,7 0 0 N 1020,4 10
22.04.2018 07:00:00 16,0 15,0 0 0 N - 10
22.04.2018 06:00:00 17,0 16,0 0 0 N - 10
22.04.2018 05:00:00 16,8 16,0 0 0 N 1020,3 15
22.04.2018 04:00:00 17,0 16,0 0 0 N - 10
22.04.2018 03:00:00 17,0 14,0 0 0 N - 10
22.04.2018 02:00:00 17,0 14,3 0 0 N 1020,3 15
22.04.2018 01:00:00 18,0 15,0 0 0 N - 10
22.04.2018 00:00:00 18,0 15,0 0 0 N - 10
21.04.2018 23:00:00 17,8 12,9 0 0 N 1020,2 10
21.04.2018 22:00:00 18,0 12,0 0 0 N - 10
21.04.2018 21:00:00 18,0 13,0 0 0 N - 10
21.04.2018 20:00:00 18,8 13,9 0 0 N 1019,4 15
21.04.2018 19:00:00 20,0 15,0 0 0 N - 10
21.04.2018 18:00:00 20,0 17,0 5 3 WSW - 10
21.04.2018 17:00:00 19,8 18,1 4 2 WSW 1019,7 15
21.04.2018 16:00:00 20,0 18,0 4 2 WSW - 10
21.04.2018 15:00:00 20,0 17,0 5 3 W - 10
21.04.2018 14:00:00 21,0 17,6 4 2 W 1020,0 15
21.04.2018 13:00:00 20,0 16,0 4 2 W - 10
21.04.2018 12:00:00 20,0 16,0 2 1 ENE - 10
21.04.2018 11:00:00 19,8 16,4 0 0 N 1019,8 10
21.04.2018 10:00:00 19,0 14,0 0 0 N - 10
21.04.2018 09:00:00 18,0 14,0 4 2 ENE - 10
21.04.2018 08:00:00 17,0 14,8 4 2 NE 1019,6 25
21.04.2018 07:00:00 17,0 14,0 4 2 ENE - 10
21.04.2018 06:00:00 17,0 14,0 4 2 NE - 10
21.04.2018 05:00:00 16,8 14,3 4 2 NE 1019,9 25
21.04.2018 04:00:00 17,0 14,0 4 2 NNE - 10
21.04.2018 03:00:00 18,0 15,0 4 2 NE - 10
21.04.2018 02:00:00 17,4 14,3 5 3 ENE 1019,8 25
21.04.2018 01:00:00 18,0 14,0 4 2 NE - 10
21.04.2018 00:00:00 18,0 15,0 11 6 NE - 10
20.04.2018 23:00:00 18,0 14,9 5 3 NE 1019,4 25
20.04.2018 22:00:00 18,0 15,0 8 4 ENE - 10
20.04.2018 21:00:00 18,0 14,0 4 2 ENE - 10
20.04.2018 20:00:00 18,2 14,7 4 2 SW 1019,1 25
20.04.2018 19:00:00 20,0 16,0 4 2 SW - 10
20.04.2018 18:00:00 20,0 17,0 5 3 W - 10
20.04.2018 17:00:00 20,0 16,4 5 3 W 1019,8 25
20.04.2018 16:00:00 21,0 14,0 4 2 SW - 10
20.04.2018 15:00:00 21,0 14,0 4 2 SW - 10
20.04.2018 14:00:00 20,4 12,9 4 2 W 1020,8 25
20.04.2018 13:00:00 20,0 13,0 5 3 W - 10
20.04.2018 12:00:00 20,0 14,0 4 2 ENE - 10
20.04.2018 11:00:00 20,0 13,9 4 2 ENE 1021,9 20
20.04.2018 10:00:00 18,0 14,0 4 2 NE - 10
20.04.2018 09:00:00 18,0 13,0 0 0 N - 10
20.04.2018 08:00:00 17,4 13,5 0 0 N 1022,1 15
20.04.2018 07:00:00 17,0 13,0 8 4 ENE - 10
20.04.2018 06:00:00 17,0 14,0 0 0 N - 10
20.04.2018 05:00:00 17,0 14,5 0 0 N 1022,2 10
20.04.2018 04:00:00 - - - - - - -
20.04.2018 03:00:00 18,0 14,0 0 0 N - 10
20.04.2018 02:00:00 18,0 13,7 0 0 N 1023,1 10
20.04.2018 01:00:00 19,0 14,0 0 0 N - 10
20.04.2018 00:00:00 19,0 14,0 0 0 N - 10
19.04.2018 23:00:00 19,0 13,8 2 1 ENE 1023,2 10
19.04.2018 22:00:00 19,0 15,0 13 7 NNE - 10
19.04.2018 21:00:00 18,0 15,0 16 9 ENE - 10
19.04.2018 20:00:00 18,8 14,7 0 0 N 1022,9 20
19.04.2018 19:00:00 20,0 14,0 4 2 W - 10
19.04.2018 18:00:00 20,0 15,0 8 4 W - 10
19.04.2018 17:00:00 19,6 16,1 11 6 W 1023,5 20
19.04.2018 16:00:00 20,0 15,0 11 6 WSW - 10
19.04.2018 15:00:00 21,0 16,0 9 5 W - 10
19.04.2018 14:00:00 21,0 14,9 5 3 W 1024,7 20
19.04.2018 13:00:00 20,0 14,0 5 3 WNW - 10
19.04.2018 12:00:00 20,0 15,0 5 3 NNW - 10
19.04.2018 11:00:00 19,0 14,3 5 3 NNW 1024,3 20
19.04.2018 10:00:00 18,0 14,0 0 0 N - 10
19.04.2018 09:00:00 18,0 15,0 4 2 NNE - 10
19.04.2018 08:00:00 17,4 13,5 0 0 N 1024,2 30
19.04.2018 07:00:00 17,0 13,0 4 2 - - 10
19.04.2018 06:00:00 - - - - - - -
19.04.2018 05:00:00 17,0 13,1 0 0 N 1024,0 30
19.04.2018 04:00:00 18,0 14,0 2 1 - - 10
19.04.2018 03:00:00 18,0 14,0 2 1 - - 10
19.04.2018 02:00:00 17,6 13,9 2 1 N 1024,0 30
19.04.2018 01:00:00 18,0 14,0 5 3 NNE - 10
19.04.2018 00:00:00 18,0 13,0 18 10 ENE - 10
18.04.2018 23:00:00 18,6 13,5 34 18 ENE 1024,0 20
18.04.2018 22:00:00 19,0 14,0 24 13 NE - 10
18.04.2018 21:00:00 19,0 13,0 11 6 NE - 10
18.04.2018 20:00:00 19,4 14,2 26 14 ENE 1022,6 35
18.04.2018 19:00:00 20,0 14,0 16 9 ENE - 10
18.04.2018 18:00:00 21,0 15,0 18 10 ENE - 10
18.04.2018 17:00:00 21,6 15,4 11 6 ENE 1022,0 20
18.04.2018 16:00:00 22,0 15,0 8 4 NE - 10
18.04.2018 15:00:00 21,0 14,0 8 4 ENE - 10
18.04.2018 14:00:00 20,0 13,9 16 9 NE 1023,2 25
18.04.2018 13:00:00 18,0 15,0 9 5 NE - 10
18.04.2018 12:00:00 19,0 15,0 11 6 NE - 10
18.04.2018 11:00:00 17,4 13,7 5 3 N 1023,3 10
18.04.2018 10:00:00 15,0 13,0 0 0 N - 10
18.04.2018 09:00:00 15,0 12,0 0 0 N - 10
18.04.2018 08:00:00 14,2 11,7 0 0 N 1022,4 10
18.04.2018 07:00:00 14,0 12,0 8 4 ENE - 10
18.04.2018 06:00:00 15,0 12,0 5 3 NE - 10
18.04.2018 05:00:00 14,4 11,4 5 3 NE 1021,6 10
18.04.2018 04:00:00 - - - - - - -
18.04.2018 03:00:00 - - - - - - -
18.04.2018 02:00:00 14,2 12,1 0 0 N 1021,7 10
18.04.2018 01:00:00 14,0 12,0 0 0 N - 10
18.04.2018 00:00:00 14,0 12,0 8 4 ENE - 10
17.04.2018 23:00:00 14,0 11,5 0 0 N 1021,7 10
17.04.2018 22:00:00 14,0 12,0 5 3 ENE - 10
17.04.2018 21:00:00 14,0 12,0 5 3 SSE - 10
17.04.2018 20:00:00 14,6 12,5 5 3 WSW 1020,0 10
17.04.2018 19:00:00 15,0 13,0 0 0 N - 10
17.04.2018 18:00:00 15,0 13,0 5 3 W - 10
17.04.2018 17:00:00 15,4 10,8 9 5 WSW 1020,1 10
17.04.2018 16:00:00 16,0 13,0 9 5 WSW - 10
17.04.2018 15:00:00 16,0 13,0 9 5 WSW - 10
17.04.2018 14:00:00 16,0 12,7 13 7 WSW 1020,3 10
17.04.2018 13:00:00 16,0 11,0 8 4 WSW - 10
17.04.2018 12:00:00 16,0 13,0 9 5 WSW - 10
17.04.2018 11:00:00 15,0 12,5 9 5 W 1020,2 10
17.04.2018 10:00:00 15,0 12,0 5 3 SW - 10
17.04.2018 09:00:00 15,0 12,0 0 0 N - 10
17.04.2018 08:00:00 13,6 11,3 0 0 N 1019,0 8
17.04.2018 07:00:00 13,0 11,0 0 0 N - 8
17.04.2018 06:00:00 13,0 11,0 0 0 N - 8
17.04.2018 05:00:00 13,8 11,5 0 0 N 1017,3 4,0
17.04.2018 04:00:00 14,0 11,0 0 0 N - 8
17.04.2018 03:00:00 14,0 12,0 0 0 N - 6
17.04.2018 02:00:00 14,2 12,2 0 0 N 1017,2 6
17.04.2018 01:00:00 15,0 13,0 0 0 N - 6

tt = temperature
td = dewpoint
ff = wind speed
dd = wind direction
ppp = reduced air pressure
vv = visibility

Next stations